EN

Hourly Weather Goetzenbruck

Today, 16 May, Sunday

Time Temperature Precipitation Wind Pressure Humidity
00:00 +7°C° 0 mm 5 mps 727 mmHg 95%
01:00 +7°C° 0.3 mm 4 mps 727 mmHg 96%
02:00 +7°C° 0.3 mm 4 mps 727 mmHg 96%
03:00 +7°C° 0.3 mm 4 mps 727 mmHg 96%
04:00 +7°C° 0.1 mm 4 mps 727 mmHg 96%
05:00 +7°C° 0.1 mm 4 mps 727 mmHg 95%
06:00 +7°C° 0.1 mm 4 mps 727 mmHg 94%
07:00 +8°C° 0 mm 4 mps 727 mmHg 91%
08:00 +8°C° 0 mm 4 mps 727 mmHg 88%
09:00 +10°C° 0 mm 3 mps 727 mmHg 85%
10:00 +11°C° 0.2 mm 3 mps 727 mmHg 85%
11:00 +11°C° 0.2 mm 3 mps 727 mmHg 85%
12:00 +11°C° 0.2 mm 3 mps 727 mmHg 85%
13:00 +12°C° 0.8 mm 4 mps 726 mmHg 86%
14:00 +12°C° 0.8 mm 4 mps 726 mmHg 87%
15:00 +13°C° 0.8 mm 4 mps 725 mmHg 88%
16:00 +12°C° 1.3 mm 4 mps 725 mmHg 89%
17:00 +10°C° 1.3 mm 5 mps 725 mmHg 89%
18:00 +10°C° 1.3 mm 5 mps 725 mmHg 90%
19:00 +10°C° 0.4 mm 4 mps 725 mmHg 91%
20:00 +8°C° 0.4 mm 4 mps 726 mmHg 93%
21:00 +7°C° 0.4 mm 4 mps 726 mmHg 94%
22:00 +7°C° 0.2 mm 5 mps 726 mmHg 94%
23:00 +7°C° 0.2 mm 5 mps 726 mmHg 94%

Tomorrow, 17 May, Monday

Time Temperature Precipitation Wind Pressure Humidity
00:00 +7°C° 0.2 mm 6 mps 727 mmHg 94%
01:00 +7°C° 0.8 mm 6 mps 727 mmHg 93%
02:00 +7°C° 0.8 mm 6 mps 727 mmHg 93%
03:00 +6°C° 0.8 mm 7 mps 727 mmHg 92%
04:00 +7°C° 0.3 mm 6 mps 728 mmHg 92%
05:00 +7°C° 0.3 mm 6 mps 728 mmHg 92%
06:00 +5°C° 0.3 mm 6 mps 729 mmHg 93%
07:00 +7°C° 0.4 mm 6 mps 729 mmHg 93%
08:00 +7°C° 0.4 mm 6 mps 729 mmHg 93%
09:00 +7°C° 0.4 mm 6 mps 729 mmHg 93%
10:00 +7°C° 0.3 mm 6 mps 729 mmHg 92%
11:00 +8°C° 0.3 mm 6 mps 730 mmHg 91%
12:00 +8°C° 0.3 mm 6 mps 730 mmHg 90%
13:00 +9°C° 0.4 mm 6 mps 730 mmHg 90%
14:00 +9°C° 0.4 mm 6 mps 730 mmHg 89%
15:00 +10°C° 0.4 mm 6 mps 730 mmHg 89%
16:00 +9°C° 0.5 mm 6 mps 731 mmHg 90%
17:00 +9°C° 0.5 mm 5 mps 731 mmHg 90%
18:00 +9°C° 0.5 mm 5 mps 731 mmHg 91%
19:00 +8°C° 0.1 mm 5 mps 731 mmHg 92%
20:00 +8°C° 0.1 mm 5 mps 732 mmHg 93%
21:00 +7°C° 0.1 mm 5 mps 732 mmHg 94%
22:00 +7°C° 0.2 mm 5 mps 732 mmHg 94%
23:00 +7°C° 0.2 mm 5 mps 732 mmHg 94%

Day after tomorrow, 18 May, Tuesday

Time Temperature Precipitation Wind Pressure Humidity
00:00 +7°C° 0.2 mm 5 mps 732 mmHg 94%
01:00 +7°C° 0.5 mm 5 mps 732 mmHg 95%
02:00 +7°C° 0.5 mm 5 mps 732 mmHg 95%
03:00 +7°C° 0.5 mm 5 mps 732 mmHg 96%
04:00 +7°C° 0.8 mm 5 mps 732 mmHg 96%
05:00 +7°C° 0.8 mm 5 mps 733 mmHg 96%
06:00 +7°C° 0.8 mm 5 mps 733 mmHg 96%
07:00 +7°C° 0.2 mm 5 mps 733 mmHg 96%
08:00 +7°C° 0.2 mm 5 mps 734 mmHg 95%
09:00 +6°C° 0.2 mm 5 mps 734 mmHg 95%
10:00 +7°C° 0.4 mm 5 mps 734 mmHg 95%
11:00 +7°C° 0.4 mm 5 mps 735 mmHg 95%
12:00 +7°C° 0.4 mm 5 mps 735 mmHg 95%
13:00 +7°C° 0.5 mm 5 mps 735 mmHg 94%
14:00 +8°C° 0.5 mm 5 mps 735 mmHg 92%
15:00 +8°C° 0.5 mm 5 mps 735 mmHg 91%
16:00 +8°C° 0.3 mm 5 mps 735 mmHg 91%
17:00 +8°C° 0.3 mm 4 mps 735 mmHg 92%
18:00 +8°C° 0.3 mm 4 mps 735 mmHg 92%
19:00 +8°C° 0.1 mm 4 mps 736 mmHg 93%
20:00 +7°C° 0.1 mm 4 mps 736 mmHg 94%
21:00 +7°C° 0.1 mm 4 mps 736 mmHg 95%
22:00 +7°C° 0 mm 3 mps 736 mmHg 96%
23:00 +5°C° 0 mm 3 mps 737 mmHg 97%

19 May, Wednesday

Time Temperature Precipitation Wind Pressure Humidity
00:00 +5°C° 0 mm 3 mps 737 mmHg 97%
01:00 +5°C° 0 mm 2 mps 737 mmHg 97%
02:00 +5°C° 0 mm 2 mps 737 mmHg 97%
03:00 +5°C° 0 mm 2 mps 737 mmHg 97%
04:00 +6°C° 0 mm 2 mps 737 mmHg 96%
05:00 +5°C° 0 mm 3 mps 737 mmHg 96%
06:00 +7°C° 0 mm 3 mps 738 mmHg 96%
07:00 +7°C° 0.2 mm 3 mps 738 mmHg 94%
08:00 +8°C° 0.2 mm 3 mps 737 mmHg 93%
09:00 +9°C° 0.2 mm 3 mps 737 mmHg 91%
10:00 +9°C° 0.4 mm 3 mps 737 mmHg 91%
11:00 +9°C° 0.4 mm 3 mps 737 mmHg 91%
12:00 +9°C° 0.4 mm 3 mps 737 mmHg 92%
13:00 +9°C° 0.1 mm 3 mps 737 mmHg 89%
14:00 +10°C° 0.1 mm 3 mps 737 mmHg 85%
15:00 +10°C° 0.1 mm 3 mps 737 mmHg 82%
16:00 +10°C° 0.1 mm 3 mps 737 mmHg 83%
17:00 +10°C° 0.1 mm 2 mps 737 mmHg 84%
18:00 +10°C° 0.1 mm 2 mps 737 mmHg 84%
19:00 +9°C° 0.1 mm 2 mps 737 mmHg 88%
20:00 +8°C° 0.1 mm 2 mps 737 mmHg 91%
21:00 +7°C° 0.1 mm 2 mps 737 mmHg 95%
22:00 +7°C° 0.2 mm 2 mps 738 mmHg 96%
23:00 +7°C° 0.2 mm 2 mps 738 mmHg 96%

20 May, Thursday

Time Temperature Precipitation Wind Pressure Humidity
00:00 +7°C° 0.2 mm 2 mps 738 mmHg 97%
01:00 +6°C° 0 mm 2 mps 738 mmHg 97%
02:00 +5°C° 0 mm 2 mps 738 mmHg 96%
03:00 +4°C° 0 mm 2 mps 739 mmHg 96%
04:00 +5°C° 0 mm 2 mps 739 mmHg 95%
05:00 +6°C° 0 mm 2 mps 739 mmHg 94%
06:00 +7°C° 0 mm 2 mps 740 mmHg 93%
07:00 +8°C° 0.1 mm 3 mps 740 mmHg 87%
08:00 +10°C° 0.1 mm 3 mps 740 mmHg 80%
09:00 +11°C° 0.1 mm 4 mps 740 mmHg 74%
10:00 +12°C° 0.1 mm 4 mps 740 mmHg 67%
11:00 +14°C° 0.1 mm 4 mps 740 mmHg 61%
12:00 +15°C° 0.1 mm 4 mps 739 mmHg 55%
13:00 +15°C° 0 mm 4 mps 739 mmHg 56%
14:00 +14°C° 0 mm 4 mps 739 mmHg 57%
15:00 +14°C° 0 mm 4 mps 739 mmHg 59%
16:00 +13°C° 0 mm 3 mps 739 mmHg 64%
17:00 +13°C° 0 mm 3 mps 738 mmHg 70%
18:00 +13°C° 0 mm 2 mps 738 mmHg 75%
19:00 +10°C° 0 mm 2 mps 738 mmHg 80%
20:00 +9°C° 0 mm 2 mps 738 mmHg 84%
21:00 +9°C° 0 mm 1 mps 738 mmHg 89%
22:00 +8°C° 0 mm 1 mps 737 mmHg 89%
23:00 +8°C° 0 mm 1 mps 737 mmHg 90%

21 May, Friday

Time Temperature Precipitation Wind Pressure Humidity
00:00 +7°C° 0 mm 1 mps 736 mmHg 90%
01:00 +7°C° 0 mm 1 mps 736 mmHg 89%
02:00 +7°C° 0 mm 1 mps 735 mmHg 89%
03:00 +7°C° 0 mm 1 mps 735 mmHg 88%
04:00 +8°C° 0 mm 1 mps 734 mmHg 84%
05:00 +9°C° 0 mm 1 mps 734 mmHg 80%
06:00 +10°C° 0 mm 2 mps 733 mmHg 76%
07:00 +11°C° 0 mm 3 mps 733 mmHg 69%
08:00 +13°C° 0 mm 3 mps 732 mmHg 63%
09:00 +15°C° 0 mm 4 mps 732 mmHg 57%
10:00 +14°C° 0.1 mm 4 mps 731 mmHg 66%
11:00 +13°C° 0.1 mm 5 mps 731 mmHg 74%
12:00 +12°C° 0.1 mm 5 mps 731 mmHg 83%
13:00 +12°C° 1.5 mm 5 mps 730 mmHg 87%
14:00 +10°C° 1.5 mm 5 mps 730 mmHg 92%
15:00 +10°C° 1.5 mm 5 mps 730 mmHg 96%
16:00 +10°C° 0.9 mm 6 mps 730 mmHg 95%
17:00 +10°C° 0.9 mm 6 mps 730 mmHg 95%
18:00 +10°C° 0.9 mm 6 mps 729 mmHg 94%
19:00 +9°C° 0.5 mm 6 mps 730 mmHg 93%
20:00 +8°C° 0.5 mm 5 mps 730 mmHg 92%
21:00 +8°C° 0.5 mm 5 mps 730 mmHg 92%
22:00 +7°C° 0.2 mm 6 mps 730 mmHg 91%
23:00 +7°C° 0.2 mm 6 mps 730 mmHg 90%
Show more